地平线卫星 19星 (GORIZONT 19)

导读 | 豆包AI

GORIZONT 19(地平线19号)是独联体(CIS,即前苏联/俄罗斯)GORIZONT系列地球同步通信卫星,由俄罗斯普里克拉德诺伊·梅哈尼基设计局研制,俄罗斯航天集团运营,1989年9月28日发射入轨。该系列卫星兼顾军民通信,可支持战略指挥、情报传输,还曾参与Okean科研计划,在俄航天与国防通信体系中发挥重要作用,目前已完成服役任务。

基本信息
目录编号:
20263
目录名称:
GORIZONT 19
国际标识:
1989-081A
轨道中心:
EARTH
卫星名称:
地平线卫星 19星
卫星全名:
地平线卫星 19星 (GORIZONT 19)
卫星状态:
在轨 (已飞行13363 天)
发射日期:
1989-09-28 UTC
国别 :
俄罗斯(独联体) (CIS)
星等 :
--
轨道信息
数据来源 国际轨道数据 AOE轨道数据
星历时间 2026-04-30T21:54:39+0800
8小时前
查看轨道信息
2026-04-30T23:00:00+0800
7小时前
查看轨道信息
半长轴 42186.917km 42187.17km
偏心率 0.000532 0.000523
轨道倾角 12.128° 12.128°
近地点辐角 284.690° 283.288°
升交点赤经 333.816° 333.814°
平近点角 254.789° 272.557°
近地点 35786.336km 35786.969km
远地点 35831.224km 35831.097km
周期 1437.230分钟 1437.243分钟
每日圈数 1.001927 1.001918
详细信息
平衡模式:
三轴稳定
覆盖范围:
全球
运营商:
俄罗斯国家航天集团
运营商所在国:
俄罗斯
制造商(研发单位):
普里克拉德诺伊·梅哈尼基设计局
制造商所在国:
俄罗斯联邦
使用方式:
暂无
卫星简介
地平线卫星(Gorizont)(俄语:Горизонт,Horizon),是1978年至2000年间发射的一系列(共35颗)俄罗斯(前苏联)地球同步通信卫星。该计划的启动是为了开发一个卫星系统来中继信号使全球覆盖1980年的莫斯科奥运会。 最初的四颗卫星是为了这个唯一目的而发射的。 此后,Gorizont系统被集成到YesSSS统一卫星通信系统中,用于中继民用和军用通信。 从1988年起,这些卫星还被用于支持Okean计划。该卫星已退役。
2D轨道图
3D轨道图
轨道高度分析图
轨道倾角分析图
轨道综合分析图
查看轨道综合分析图